Time,TemperatureF,DewpointF,PressureIn,WindDirection,WindDirectionDegrees,WindSpeedMPH,WindSpeedGustMPH,Humidity,HourlyPrecipIn,Conditions,Clouds,dailyrainin,SoftwareType,DateUTC
2013-08-04 00:13:00,59.9,59.0,29.75,SSW,212,0.0,0.0,97,0.00,,,0.00,weatherlink.com 1.10,2013-08-04 04:13:00,
2013-08-04 00:28:00,59.8,59.0,29.75,SSW,212,0.0,0.0,97,0.00,,,0.00,weatherlink.com 1.10,2013-08-04 04:28:00,
2013-08-04 00:43:00,59.5,59.0,29.75,SSW,212,0.0,0.0,97,0.00,,,0.00,weatherlink.com 1.10,2013-08-04 04:43:00,
2013-08-04 00:58:00,59.5,59.0,29.75,SSW,212,0.0,0.0,97,0.00,,,0.00,weatherlink.com 1.10,2013-08-04 04:58:00,
2013-08-04 01:13:00,59.1,58.0,29.75,SSW,212,0.0,0.0,97,0.00,,,0.00,weatherlink.com 1.10,2013-08-04 05:13:00,
2013-08-04 01:28:00,59.3,59.0,29.75,SSW,212,0.0,0.0,97,0.00,,,0.00,weatherlink.com 1.10,2013-08-04 05:28:00,
2013-08-04 01:43:00,59.1,58.0,29.74,SSW,212,0.0,0.0,97,0.00,,,0.00,weatherlink.com 1.10,2013-08-04 05:43:00,
2013-08-04 01:58:00,58.7,58.0,29.74,SW,214,0.0,1.0,97,0.00,,,0.00,weatherlink.com 1.10,2013-08-04 05:58:00,
2013-08-04 02:13:00,58.5,58.0,29.73,SW,215,0.0,1.0,97,0.00,,,0.00,weatherlink.com 1.10,2013-08-04 06:13:00,
2013-08-04 02:28:00,58.9,58.0,29.73,SW,215,0.0,0.0,97,0.00,,,0.00,weatherlink.com 1.10,2013-08-04 06:28:00,
2013-08-04 02:43:00,59.8,59.0,29.73,South,179,0.0,0.0,97,0.00,,,0.00,weatherlink.com 1.10,2013-08-04 06:43:00,
2013-08-04 02:58:00,60.5,60.0,29.73,South,179,0.0,0.0,97,0.00,,,0.00,weatherlink.com 1.10,2013-08-04 06:58:00,
2013-08-04 03:13:00,59.9,59.0,29.73,SW,233,0.0,1.0,95,0.00,,,0.00,weatherlink.com 1.10,2013-08-04 07:13:00,
2013-08-04 03:28:00,59.5,58.0,29.73,SW,231,0.0,1.0,96,0.00,,,0.00,weatherlink.com 1.10,2013-08-04 07:28:00,
2013-08-04 03:43:00,59.4,58.0,29.73,SW,225,0.0,0.0,96,0.00,,,0.00,weatherlink.com 1.10,2013-08-04 07:43:00,
2013-08-04 03:58:00,59.2,58.0,29.73,SW,224,0.0,1.0,95,0.00,,,0.00,weatherlink.com 1.10,2013-08-04 07:58:00,
2013-08-04 04:13:00,59.0,58.0,29.74,SW,224,0.0,0.0,95,0.00,,,0.00,weatherlink.com 1.10,2013-08-04 08:13:00,
2013-08-04 04:28:00,58.7,57.0,29.74,SW,225,0.0,1.0,95,0.00,,,0.00,weatherlink.com 1.10,2013-08-04 08:28:00,
2013-08-04 04:43:00,58.2,57.0,29.75,SW,225,0.0,0.0,95,0.00,,,0.00,weatherlink.com 1.10,2013-08-04 08:43:00,
2013-08-04 04:59:00,58.1,57.0,29.75,SW,225,0.0,0.0,96,0.00,,,0.00,weatherlink.com 1.10,2013-08-04 08:59:00,
2013-08-04 05:13:00,57.7,57.0,29.75,SW,226,0.0,1.0,96,0.00,,,0.00,weatherlink.com 1.10,2013-08-04 09:13:00,
2013-08-04 05:29:00,57.4,56.0,29.75,SW,226,0.0,1.0,96,0.00,,,0.00,weatherlink.com 1.10,2013-08-04 09:29:00,
2013-08-04 05:44:00,57.3,56.0,29.75,SW,226,0.0,1.0,96,0.00,,,0.00,weatherlink.com 1.10,2013-08-04 09:44:00,
2013-08-04 05:59:00,57.4,56.0,29.75,SW,228,0.0,0.0,96,0.00,,,0.00,weatherlink.com 1.10,2013-08-04 09:59:00,
2013-08-04 06:14:00,58.1,57.0,29.75,SW,228,0.0,0.0,97,0.00,,,0.00,weatherlink.com 1.10,2013-08-04 10:14:00,
2013-08-04 06:28:00,58.5,58.0,29.76,SW,228,0.0,1.0,97,0.00,,,0.00,weatherlink.com 1.10,2013-08-04 10:28:00,
2013-08-04 06:44:00,59.9,59.0,29.76,SW,226,0.0,0.0,97,0.00,,,0.00,weatherlink.com 1.10,2013-08-04 10:44:00,
2013-08-04 06:59:00,60.6,60.0,29.76,SW,226,0.0,1.0,96,0.00,,,0.00,weatherlink.com 1.10,2013-08-04 10:59:00,
2013-08-04 07:14:00,61.9,61.0,29.76,SW,218,0.0,0.0,96,0.00,,,0.00,weatherlink.com 1.10,2013-08-04 11:14:00,
2013-08-04 07:29:00,63.7,61.0,29.76,SSE,163,0.0,1.0,92,0.00,,,0.00,weatherlink.com 1.10,2013-08-04 11:29:00,
2013-08-04 07:44:00,65.1,61.0,29.76,SW,235,0.0,2.0,86,0.00,,,0.00,weatherlink.com 1.10,2013-08-04 11:44:00,
2013-08-04 07:59:00,66.6,62.0,29.76,South,187,0.0,1.0,84,0.00,,,0.00,weatherlink.com 1.10,2013-08-04 11:59:00,
2013-08-04 08:14:00,67.9,61.0,29.75,SW,233,0.0,3.0,78,0.00,,,0.00,weatherlink.com 1.10,2013-08-04 12:14:00,
2013-08-04 08:29:00,68.0,62.0,29.75,SSW,212,0.0,2.0,80,0.00,,,0.00,weatherlink.com 1.10,2013-08-04 12:29:00,
2013-08-04 08:44:00,69.2,62.0,29.75,SW,215,0.0,1.0,78,0.00,,,0.00,weatherlink.com 1.10,2013-08-04 12:44:00,
2013-08-04 08:59:00,69.8,62.0,29.75,SSE,166,0.0,1.0,76,0.00,,,0.00,weatherlink.com 1.10,2013-08-04 12:59:00,
2013-08-04 09:14:00,70.5,62.0,29.75,SSW,210,0.0,2.0,74,0.00,,,0.00,weatherlink.com 1.10,2013-08-04 13:14:00,
2013-08-04 09:29:00,70.8,63.0,29.75,WSW,257,1.0,2.0,75,0.00,,,0.00,weatherlink.com 1.10,2013-08-04 13:29:00,
2013-08-04 09:44:00,71.6,62.0,29.75,SW,217,0.0,3.0,72,0.00,,,0.00,weatherlink.com 1.10,2013-08-04 13:44:00,
2013-08-04 09:59:00,71.9,63.0,29.75,SW,227,0.0,2.0,73,0.00,,,0.00,weatherlink.com 1.10,2013-08-04 13:59:00,
2013-08-04 10:14:00,72.3,62.0,29.75,SSE,148,2.0,4.0,70,0.00,,,0.00,weatherlink.com 1.10,2013-08-04 14:14:00,
2013-08-04 10:29:00,73.1,62.0,29.75,SE,139,2.0,4.0,69,0.00,,,0.00,weatherlink.com 1.10,2013-08-04 14:29:00,
2013-08-04 10:46:00,72.6,62.0,29.75,SE,131,0.0,5.0,69,0.00,,,0.00,weatherlink.com 1.10,2013-08-04 14:46:00,
2013-08-04 11:03:00,73.0,63.0,29.75,West,273,1.0,4.0,70,0.00,,,0.00,weatherlink.com 1.10,2013-08-04 15:03:00,
2013-08-04 11:18:00,74.8,63.0,29.75,WSW,240,0.0,4.0,67,0.00,,,0.00,weatherlink.com 1.10,2013-08-04 15:18:00,
2013-08-04 11:33:00,75.6,62.0,29.75,South,169,3.0,4.0,63,0.00,,,0.00,weatherlink.com 1.10,2013-08-04 15:33:00,
2013-08-04 11:48:00,75.8,62.0,29.75,SE,143,2.0,5.0,62,0.00,,,0.00,weatherlink.com 1.10,2013-08-04 15:48:00,
2013-08-04 12:03:00,75.9,61.0,29.74,SSE,148,2.0,4.0,61,0.00,,,0.00,weatherlink.com 1.10,2013-08-04 16:03:00,
2013-08-04 12:18:00,75.5,61.0,29.74,SSE,160,3.0,6.0,62,0.00,,,0.00,weatherlink.com 1.10,2013-08-04 16:18:00,
2013-08-04 12:33:00,76.2,61.0,29.73,SSE,153,2.0,7.0,60,0.00,,,0.00,weatherlink.com 1.10,2013-08-04 16:33:00,
2013-08-04 12:48:00,76.5,61.0,29.73,SSE,153,2.0,4.0,59,0.00,,,0.00,weatherlink.com 1.10,2013-08-04 16:48:00,
2013-08-04 13:03:00,77.6,61.0,29.73,SE,143,1.0,4.0,57,0.00,,,0.00,weatherlink.com 1.10,2013-08-04 17:03:00,
2013-08-04 13:18:00,78.0,61.0,29.73,ENE,69,2.0,5.0,56,0.00,,,0.00,weatherlink.com 1.10,2013-08-04 17:18:00,
2013-08-04 13:33:00,78.2,60.0,29.72,SSE,160,1.0,3.0,53,0.00,,,0.00,weatherlink.com 1.10,2013-08-04 17:33:00,
2013-08-04 13:48:00,77.5,59.0,29.72,SW,224,1.0,4.0,53,0.00,,,0.00,weatherlink.com 1.10,2013-08-04 17:48:00,
2013-08-04 14:03:00,78.1,59.0,29.71,SSW,212,0.0,2.0,53,0.00,,,0.00,weatherlink.com 1.10,2013-08-04 18:03:00,
2013-08-04 14:19:00,77.7,61.0,29.71,SSE,154,3.0,5.0,56,0.00,,,0.00,weatherlink.com 1.10,2013-08-04 18:19:00,
2013-08-04 14:34:00,77.1,60.0,29.71,SSE,166,1.0,7.0,56,0.00,,,0.00,weatherlink.com 1.10,2013-08-04 18:34:00,
2013-08-04 14:48:00,76.6,61.0,29.70,SSE,150,1.0,4.0,58,0.00,,,0.00,weatherlink.com 1.10,2013-08-04 18:48:00,
2013-08-04 15:04:00,75.9,60.0,29.70,SSE,153,5.0,5.0,59,0.00,,,0.00,weatherlink.com 1.10,2013-08-04 19:04:00,
2013-08-04 15:19:00,75.7,60.0,29.70,SW,223,0.0,6.0,59,0.00,,,0.00,weatherlink.com 1.10,2013-08-04 19:19:00,
2013-08-04 15:34:00,72.2,62.0,29.70,SE,138,6.0,12.0,71,0.00,,,0.00,weatherlink.com 1.10,2013-08-04 19:34:00,
2013-08-04 15:49:00,70.2,62.0,29.70,SE,136,11.0,16.0,76,0.00,,,0.00,weatherlink.com 1.10,2013-08-04 19:49:00,
2013-08-04 16:04:00,69.3,63.0,29.70,SSE,148,7.0,14.0,80,0.00,,,0.00,weatherlink.com 1.10,2013-08-04 20:04:00,
2013-08-04 16:18:00,69.5,58.0,29.72,WSW,243,0.0,5.0,68,0.00,,,0.00,weatherlink.com 1.10,2013-08-04 20:18:00,
2013-08-04 16:33:00,68.4,59.0,29.74,WSW,238,0.0,0.0,72,0.00,,,0.00,weatherlink.com 1.10,2013-08-04 20:33:00,
2013-08-04 16:48:00,65.8,59.0,29.75,SSW,211,0.0,0.0,79,0.01,,,0.01,weatherlink.com 1.10,2013-08-04 20:48:00,
2013-08-04 17:04:00,64.1,59.0,29.75,SW,235,0.0,0.0,84,0.01,,,0.01,weatherlink.com 1.10,2013-08-04 21:04:00,
2013-08-04 17:19:00,63.5,60.0,29.75,South,183,0.0,0.0,88,0.02,,,0.02,weatherlink.com 1.10,2013-08-04 21:19:00,
2013-08-04 17:34:00,62.8,60.0,29.76,SE,142,0.0,0.0,90,0.07,,,0.07,weatherlink.com 1.10,2013-08-04 21:34:00,
2013-08-04 17:49:00,62.6,60.0,29.74,SSW,195,0.0,0.0,92,0.11,,,0.12,weatherlink.com 1.10,2013-08-04 21:49:00,
2013-08-04 18:04:00,63.0,61.0,29.74,SSW,194,0.0,0.0,92,0.11,,,0.12,weatherlink.com 1.10,2013-08-04 22:04:00,
2013-08-04 18:19:00,63.1,61.0,29.74,SSW,194,0.0,0.0,93,0.10,,,0.12,weatherlink.com 1.10,2013-08-04 22:19:00,
2013-08-04 18:34:00,62.7,61.0,29.75,SSW,194,0.0,0.0,93,0.05,,,0.12,weatherlink.com 1.10,2013-08-04 22:34:00,
2013-08-04 18:49:00,62.9,61.0,29.75,SSW,195,0.0,0.0,94,0.00,,,0.12,weatherlink.com 1.10,2013-08-04 22:49:00,
2013-08-04 19:04:00,62.9,61.0,29.75,SSW,196,0.0,0.0,94,0.00,,,0.12,weatherlink.com 1.10,2013-08-04 23:04:00,
2013-08-04 19:19:00,62.9,61.0,29.75,SSW,195,0.0,0.0,94,0.00,,,0.12,weatherlink.com 1.10,2013-08-04 23:19:00,
2013-08-04 19:34:00,62.6,61.0,29.75,SSW,195,0.0,0.0,94,0.00,,,0.12,weatherlink.com 1.10,2013-08-04 23:34:00,
2013-08-04 19:49:00,62.4,61.0,29.75,SSW,194,0.0,0.0,94,0.00,,,0.12,weatherlink.com 1.10,2013-08-04 23:49:00,
2013-08-04 20:04:00,62.1,60.0,29.77,SSW,194,0.0,0.0,94,0.00,,,0.12,weatherlink.com 1.10,2013-08-05 00:04:00,
2013-08-04 20:19:00,62.0,60.0,29.77,SSW,194,0.0,0.0,94,0.00,,,0.12,weatherlink.com 1.10,2013-08-05 00:19:00,
2013-08-04 20:34:00,61.9,60.0,29.78,SSW,194,0.0,0.0,94,0.00,,,0.12,weatherlink.com 1.10,2013-08-05 00:34:00,
2013-08-04 20:49:00,61.6,60.0,29.78,SSW,194,0.0,0.0,94,0.00,,,0.12,weatherlink.com 1.10,2013-08-05 00:49:00,
2013-08-04 21:04:00,61.6,60.0,29.79,SSW,195,0.0,0.0,94,0.00,,,0.12,weatherlink.com 1.10,2013-08-05 01:04:00,
2013-08-04 21:19:00,61.3,60.0,29.78,SSW,195,0.0,0.0,95,0.00,,,0.12,weatherlink.com 1.10,2013-08-05 01:19:00,
2013-08-04 21:34:00,61.0,60.0,29.78,SSW,195,0.0,0.0,95,0.00,,,0.12,weatherlink.com 1.10,2013-08-05 01:34:00,
2013-08-04 21:49:00,60.7,59.0,29.78,SSW,205,0.0,0.0,95,0.00,,,0.12,weatherlink.com 1.10,2013-08-05 01:49:00,
2013-08-04 22:04:00,60.4,59.0,29.79,SSW,205,0.0,0.0,95,0.00,,,0.12,weatherlink.com 1.10,2013-08-05 02:04:00,
2013-08-04 22:19:00,60.1,58.0,29.79,SSW,207,0.0,0.0,94,0.00,,,0.12,weatherlink.com 1.10,2013-08-05 02:19:00,
2013-08-04 22:34:00,59.5,58.0,29.79,SSW,207,0.0,0.0,94,0.00,,,0.12,weatherlink.com 1.10,2013-08-05 02:34:00,
2013-08-04 22:49:00,59.5,57.0,29.79,SW,233,0.0,0.0,92,0.00,,,0.12,weatherlink.com 1.10,2013-08-05 02:49:00,
2013-08-04 23:04:00,59.1,56.0,29.79,SW,232,0.0,0.0,90,0.00,,,0.12,weatherlink.com 1.10,2013-08-05 03:04:00,
2013-08-04 23:19:00,58.7,56.0,29.79,SW,228,0.0,0.0,90,0.00,,,0.12,weatherlink.com 1.10,2013-08-05 03:19:00,
2013-08-04 23:34:00,58.3,56.0,29.79,SW,228,0.0,0.0,91,0.00,,,0.12,weatherlink.com 1.10,2013-08-05 03:34:00,
2013-08-04 23:49:00,57.6,55.0,29.79,SW,228,0.0,-999.0,91,-99.99,,,0.12,weatherlink.com 1.10,2013-08-05 03:49:00,